When you browse on this site, cookies collect data to enhance your experience and personalize the content and advertising you see.
Visit our Privacy Policy to learn more. By continuing to use the site, you agree to this use of cookies and data.

Hourly Weather Medina

Today, 7 July, Tuesday

Time Temperature Precipitation Wind Pressure Humidity
00:00 +28°C° 0 mm 2 mps 685 mmHg 23%
01:00 +27°C° 0 mm 2 mps 685 mmHg 24%
02:00 +27°C° 0 mm 2 mps 685 mmHg 24%
03:00 +26°C° 0 mm 2 mps 684 mmHg 29%
04:00 +26°C° 0 mm 2 mps 684 mmHg 28%
05:00 +26°C° 0 mm 2 mps 685 mmHg 27%
06:00 +25°C° 0 mm 2 mps 685 mmHg 26%
07:00 +29°C° 0 mm 3 mps 686 mmHg 21%
08:00 +33°C° 0 mm 4 mps 686 mmHg 16%
09:00 +36°C° 0 mm 6 mps 687 mmHg 10%
10:00 +39°C° 0 mm 7 mps 687 mmHg 9%
11:00 +41°C° 0 mm 8 mps 688 mmHg 8%
12:00 +43°C° 0 mm 10 mps 688 mmHg 7%
13:00 +44°C° 0 mm 11 mps 688 mmHg 8%
14:00 +44°C° 0 mm 12 mps 687 mmHg 8%
15:00 +45°C° 0 mm 13 mps 687 mmHg 8%
16:00 +43°C° 0 mm 12 mps 687 mmHg 9%
17:00 +42°C° 0 mm 12 mps 687 mmHg 10%
18:00 +39°C° 0 mm 12 mps 687 mmHg 10%
19:00 +37°C° 0 mm 9 mps 687 mmHg 12%
20:00 +33°C° 0 mm 6 mps 686 mmHg 15%
21:00 +29°C° 0 mm 3 mps 686 mmHg 17%
22:00 +28°C° 0 mm 3 mps 686 mmHg 18%
23:00 +27°C° 0 mm 2 mps 686 mmHg 19%

Tomorrow, 8 July, Wednesday

Time Temperature Precipitation Wind Pressure Humidity
00:00 +26°C° 0 mm 2 mps 686 mmHg 20%
01:00 +26°C° 0 mm 2 mps 686 mmHg 21%
02:00 +25°C° 0 mm 1 mps 685 mmHg 22%
03:00 +25°C° 0 mm 1 mps 685 mmHg 24%
04:00 +24°C° 0 mm 1 mps 685 mmHg 25%
05:00 +24°C° 0 mm 1 mps 686 mmHg 26%
06:00 +23°C° 0 mm 1 mps 686 mmHg 27%
07:00 +26°C° 0 mm 2 mps 687 mmHg 21%
08:00 +30°C° 0 mm 3 mps 687 mmHg 16%
09:00 +34°C° 0 mm 3 mps 688 mmHg 10%
10:00 +36°C° 0 mm 4 mps 688 mmHg 9%
11:00 +38°C° 0 mm 4 mps 688 mmHg 9%
12:00 +40°C° 0 mm 5 mps 688 mmHg 8%
13:00 +41°C° 0 mm 5 mps 688 mmHg 8%
14:00 +42°C° 0 mm 6 mps 688 mmHg 7%
15:00 +44°C° 0 mm 6 mps 688 mmHg 6%
16:00 +43°C° 0 mm 7 mps 687 mmHg 8%
17:00 +41°C° 0 mm 7 mps 687 mmHg 10%
18:00 +39°C° 0 mm 8 mps 687 mmHg 11%
19:00 +36°C° 0 mm 7 mps 687 mmHg 14%
20:00 +33°C° 0 mm 6 mps 687 mmHg 16%
21:00 +30°C° 0 mm 6 mps 687 mmHg 18%
22:00 +29°C° 0 mm 4 mps 686 mmHg 19%
23:00 +28°C° 0 mm 3 mps 686 mmHg 20%

Day after tomorrow, 9 July, Thursday

Time Temperature Precipitation Wind Pressure Humidity
00:00 +26°C° 0 mm 1 mps 686 mmHg 20%
01:00 +26°C° 0 mm 1 mps 686 mmHg 21%
02:00 +25°C° 0 mm 1 mps 686 mmHg 21%
03:00 +24°C° 0 mm 1 mps 685 mmHg 22%
04:00 +24°C° 0 mm 1 mps 685 mmHg 22%
05:00 +24°C° 0 mm 1 mps 685 mmHg 21%
06:00 +24°C° 0 mm 1 mps 686 mmHg 21%
07:00 +27°C° 0 mm 2 mps 686 mmHg 16%
08:00 +31°C° 0 mm 2 mps 687 mmHg 12%
09:00 +35°C° 0 mm 3 mps 688 mmHg 8%
10:00 +37°C° 0 mm 3 mps 688 mmHg 7%
11:00 +38°C° 0 mm 3 mps 688 mmHg 6%
12:00 +40°C° 0 mm 3 mps 688 mmHg 5%
13:00 +42°C° 0 mm 4 mps 688 mmHg 5%
14:00 +42°C° 0 mm 5 mps 687 mmHg 4%
15:00 +44°C° 0 mm 6 mps 687 mmHg 4%
16:00 +43°C° 0 mm 7 mps 686 mmHg 7%
17:00 +40°C° 0 mm 7 mps 686 mmHg 9%
18:00 +39°C° 0 mm 8 mps 686 mmHg 12%
19:00 +35°C° 0 mm 6 mps 686 mmHg 16%
20:00 +32°C° 0 mm 5 mps 686 mmHg 19%
21:00 +29°C° 0 mm 3 mps 686 mmHg 23%
22:00 +28°C° 0 mm 2 mps 686 mmHg 25%
23:00 +27°C° 0 mm 2 mps 686 mmHg 26%

10 July, Friday

Time Temperature Precipitation Wind Pressure Humidity
00:00 +26°C° 0 mm 1 mps 685 mmHg 27%
01:00 +25°C° 0 mm 1 mps 685 mmHg 27%
02:00 +25°C° 0 mm 1 mps 685 mmHg 28%
03:00 +24°C° 0 mm 1 mps 685 mmHg 28%
04:00 +24°C° 0 mm 1 mps 685 mmHg 27%
05:00 +24°C° 0 mm 1 mps 685 mmHg 27%
06:00 +24°C° 0 mm 1 mps 685 mmHg 26%
07:00 +28°C° 0 mm 1 mps 686 mmHg 21%
08:00 +31°C° 0 mm 2 mps 687 mmHg 17%
09:00 +35°C° 0 mm 2 mps 688 mmHg 12%
10:00 +37°C° 0 mm 3 mps 688 mmHg 10%
11:00 +39°C° 0 mm 3 mps 688 mmHg 9%
12:00 +42°C° 0 mm 4 mps 688 mmHg 7%
13:00 +42°C° 0 mm 5 mps 687 mmHg 7%
14:00 +44°C° 0 mm 6 mps 687 mmHg 7%
15:00 +45°C° 0 mm 7 mps 687 mmHg 7%
16:00 +43°C° 0 mm 8 mps 687 mmHg 10%
17:00 +41°C° 0 mm 8 mps 687 mmHg 12%
18:00 +39°C° 0 mm 8 mps 686 mmHg 15%
19:00 +36°C° 0 mm 7 mps 687 mmHg 19%
20:00 +33°C° 0 mm 5 mps 687 mmHg 23%
21:00 +30°C° 0 mm 3 mps 687 mmHg 27%
22:00 +29°C° 0 mm 3 mps 687 mmHg 29%
23:00 +28°C° 0 mm 2 mps 687 mmHg 30%

11 July, Saturday

Time Temperature Precipitation Wind Pressure Humidity
00:00 +27°C° 0 mm 1 mps 686 mmHg 32%
01:00 +27°C° 0 mm 1 mps 686 mmHg 32%
02:00 +26°C° 0 mm 1 mps 686 mmHg 32%
03:00 +26°C° 0 mm 1 mps 685 mmHg 32%
04:00 +26°C° 0 mm 1 mps 685 mmHg 32%
05:00 +25°C° 0 mm 1 mps 685 mmHg 32%
06:00 +25°C° 0 mm 1 mps 685 mmHg 32%
07:00 +28°C° 0 mm 2 mps 686 mmHg 26%
08:00 +33°C° 0 mm 4 mps 687 mmHg 20%
09:00 +37°C° 0 mm 5 mps 688 mmHg 14%
10:00 +39°C° 0 mm 5 mps 688 mmHg 12%
11:00 +41°C° 0 mm 5 mps 688 mmHg 11%
12:00 +42°C° 0 mm 5 mps 688 mmHg 9%
13:00 +43°C° 0 mm 5 mps 687 mmHg 9%
14:00 +45°C° 0 mm 5 mps 687 mmHg 8%
15:00 +46°C° 0 mm 5 mps 687 mmHg 8%
16:00 +44°C° 0 mm 6 mps 686 mmHg 10%
17:00 +43°C° 0 mm 8 mps 686 mmHg 12%
18:00 +40°C° 0 mm 9 mps 686 mmHg 15%
19:00 +38°C° 0 mm 7 mps 686 mmHg 18%
20:00 +34°C° 0 mm 5 mps 686 mmHg 21%
21:00 +30°C° 0 mm 4 mps 686 mmHg 24%
22:00 +30°C° 0 mm 3 mps 685 mmHg 25%
23:00 +29°C° 0 mm 3 mps 685 mmHg 26%

12 July, Sunday

Time Temperature Precipitation Wind Pressure Humidity
00:00 +28°C° 0 mm 2 mps 685 mmHg 27%
01:00 +27°C° 0 mm 2 mps 685 mmHg 26%
02:00 +27°C° 0 mm 1 mps 684 mmHg 25%
03:00 +26°C° 0 mm 1 mps 684 mmHg 25%
04:00 +26°C° 0 mm 1 mps 684 mmHg 26%
05:00 +25°C° 0 mm 1 mps 684 mmHg 27%
06:00 +25°C° 0 mm 1 mps 684 mmHg 28%
07:00 +28°C° 0 mm 2 mps 684 mmHg 24%
08:00 +31°C° 0 mm 2 mps 685 mmHg 20%
09:00 +35°C° 0 mm 3 mps 686 mmHg 16%
10:00 +37°C° 0 mm 3 mps 686 mmHg 13%
11:00 +39°C° 0 mm 2 mps 686 mmHg 10%
12:00 +41°C° 0 mm 2 mps 686 mmHg 8%
13:00 +43°C° 0 mm 3 mps 686 mmHg 7%
14:00 +44°C° 0 mm 4 mps 686 mmHg 7%
15:00 +46°C° 0 mm 5 mps 685 mmHg 6%
16:00 +45°C° 0 mm 6 mps 685 mmHg 9%
17:00 +44°C° 0 mm 7 mps 685 mmHg 12%
18:00 +41°C° 0 mm 8 mps 685 mmHg 15%
19:00 +39°C° 0 mm 7 mps 685 mmHg 19%
20:00 +35°C° 0 mm 5 mps 685 mmHg 23%
21:00 +32°C° 0 mm 4 mps 685 mmHg 27%
22:00 +30°C° 0 mm 3 mps 684 mmHg 29%
23:00 +29°C° 0 mm 3 mps 684 mmHg 30%
Show more